Regional Weather Roundup
Issued by NWS Newport/Morehead, NC

Current Version | Previous Version | Text Only | Print | Product List | Glossary On
Versions: 1 2 3 4 5 6 7 8 9 10 11 12 13 14 15 16 17 18 19 20 21 22 23 24 25 26 27 28 29 30 31 32 33 34 35 36 37 38 39 40 41 42 43 44 45 46 47 48 49 50
954
ASUS42 KMHX 181525
RWRMHX
WEATHER ROUNDUP FOR EASTERN NORTH CAROLINA
NATIONAL WEATHER SERVICE NEWPORT/MOREHEAD CITY NC
1000 AM EST MON DEC 18 2017

NOTE: "FAIR" INDICATES FEW OR NO CLOUDS BELOW 12,000 FEET
WITH NO SIGNIFICANT WEATHER AND/OR OBSTRUCTIONS TO VISIBILITY

NCZ015>017-031-032-045>047-102-103-181600-
NORTH COAST

CITY           SKY/WX    TMP DP  RH WIND       PRES   REMARKS
EDENTON        SUNNY     54  42  62 W5        30.18S
ELIZABETH CITY SUNNY     54  44  69 W12       30.17S
KITTY HAWK     SUNNY     51  39  62 CALM      30.15F
MANTEO         SUNNY     52  40  65 NW3       30.17F

$$

NCZ045>047-081-094-103-104-181600-
CENTRAL COAST

CITY           SKY/WX    TMP DP  RH WIND       PRES   REMARKS
FRISCO         MOSUNNY   57  47  69 SW6       30.18S

$$

NCZ095-097-098-100-101-181600-
SOUTHERN COAST

CITY           SKY/WX    TMP DP  RH WIND       PRES   REMARKS
BEAUFORT       CLOUDY    57  47  69 CALM      30.20R
CEDAR ISLAND   NOT AVBL
JACKSONVILLE   CLOUDY    57  50  77 CALM      30.19S
PINEY ISLAND     N/A    N/A N/A N/A W7        30.19R
WILMINGTON     CLOUDY    61  52  72 CALM      30.20R


$$

NCZ011>013-027>030-043-044-078>080-089-090>093-098-181600-
COASTAL PLAIN

CITY           SKY/WX    TMP DP  RH WIND       PRES   REMARKS
AHOSKIE        SUNNY     51  40  64 CALM      30.17S
CLINTON        CLOUDY    58  46  62 CALM      30.19S
ELIZABETHTOWN  NOT AVBL
GOLDSBORO      MOSUNNY   55  40  57 CALM      30.17S
GREENVILLE     MOSUNNY   54  37  54 W5        30.19S
HAVELOCK       CLOUDY    57  46  66 W3        30.21R
KENANSVILLE    CLOUDY    59  45  58 CALM      30.19S
KINSTON        CLOUDY    55  41  58 W3        30.20R
NEW BERN       PTSUNNY   56  47  71 CALM      30.20R
RICHLANDS      MOSUNNY   60  47  61 S6        30.20R
ROCKY MOUNT    SUNNY     50  40  68 CALM      30.19R
WASHINGTON     CLOUDY    50  42  73 CALM      30.19S
WHITEVILLE     PTSUNNY   60  52  74 W6        30.19S

$$

AMZ130-135-150-152-154-156-158-170-250-252-270-ANZ085-086-088-633-658-670-181600-
MARINE OBSERVATIONS

STATION/POSITION TIME  TEMP    WIND        PRES    WAVE   SWELL
                       AIR SEA DIR/SP/G            HT/PER HT/PER
                 (UTC) (F)     (DEG/KT/KT) (MB)    (FT/S) (FT/S)
CHESAPEAKE LIGHT NOT AVBL
64 E VA BEACH    1450   54 57  270/ 14/ 17 1021.2    2/ 4
DUCK             1500   50 52  250/  8/ 11 1020.8
2 E DUCK         1500      54                N/A     1/10
OREGON INLET     1500   50 46  220/  5/  5 1021.6
13E OREGON INLT  1448      53                N/A     1/10   2/10
HATTERAS CG      1500   55 52  230/  5/  6 1021.7
DIAMOND BUOY     1510   61 72  300/  8/ 12 1022.1
CAPE LOOKOUT     1500          250/  2/  3 1022.8
BEAUFORT LAB     1500   56 51  250/  1/  3 1022.4
30 SE NEW RVR IN 1508   61 63  340/  2/  4 1022.7
30 SE NEW RVR IN 1500      63                N/A     1/10
27 SE WRIGHTSVLE 1508   62 58  360/  4/  6 1022.4
5 SE WRIGHTSVLE  1508   56 55   40/  2/  4 1022.2
225 S CAPE HAT   1450   72 74  230/ 17/ 19 1023.2    4/ 5   2/ 9
41 SE CHARLESTON 1510   70 73  240/ 14/ 17 1022.9

$$




USA.gov is the U.S. government's official web portal to all federal, state and local government web resources and services.